Zurück zum Katalog

DELTA 1 DEB

AktivSSO
NORAD 7141·DEBRIS·🇺🇸 United States

Gestartet Nov 6, 1973 von Vandenberg Space Force Base

Loading…

Nächste Überflüge (nächste 24 Stunden)

TLE

AktuellSource: Space-Track

Epoche: Sep 14, 2026, 09:08 UTC

1 07141U 73086DF  26257.38093906  .00000125  00000-0  12592-2 0  9996
2 07141 102.0763 308.3815 0024682 149.2556 277.3151 12.40966990386117

Verfolge DELTA 1 DEB in Echtzeit mit AllMySat

Download on the App Store